When you browse on this site, cookies collect data to enhance your experience and personalize the content and advertising you see.
Visit our Privacy Policy to learn more. By continuing to use the site, you agree to this use of cookies and data.
  • en Suisse
  • Liste des pays
  • À 7 jours
  • Température de l'eau
  • Carte météo
  • Widgets météo
  • user-avatar
    Se connecter

    Météo par heure à Omagh

    Ce jour, 10 Avril, Vendredi

    Heure Température Précipitation Vent Pression Humidité
    00:00 +9°C° 0 mm 1 m/s 760 mmHg 96%
    01:00 +9°C° 0 mm 1 m/s 760 mmHg 96%
    02:00 +9°C° 0 mm 1 m/s 759 mmHg 96%
    03:00 +9°C° 0 mm 1 m/s 759 mmHg 96%
    04:00 +9°C° 0 mm 1 m/s 759 mmHg 95%
    05:00 +9°C° 0 mm 1 m/s 759 mmHg 95%
    06:00 +9°C° 0 mm 1 m/s 759 mmHg 95%
    07:00 +10°C° 0 mm 1 m/s 759 mmHg 90%
    08:00 +12°C° 0 mm 1 m/s 759 mmHg 85%
    09:00 +14°C° 0 mm 1 m/s 759 mmHg 80%
    10:00 +15°C° 0 mm 2 m/s 759 mmHg 77%
    11:00 +16°C° 0 mm 2 m/s 759 mmHg 75%
    12:00 +17°C° 0 mm 2 m/s 759 mmHg 73%
    13:00 +18°C° 0.1 mm 2 m/s 759 mmHg 73%
    14:00 +18°C° 0.1 mm 2 m/s 759 mmHg 74%
    15:00 +18°C° 0.1 mm 2 m/s 759 mmHg 75%
    16:00 +17°C° 0.3 mm 2 m/s 759 mmHg 80%
    17:00 +16°C° 0.3 mm 1 m/s 759 mmHg 85%
    18:00 +15°C° 0.3 mm 1 m/s 758 mmHg 90%
    19:00 +14°C° 0.1 mm 1 m/s 759 mmHg 91%
    20:00 +12°C° 0.1 mm 0 m/s 759 mmHg 92%
    21:00 +12°C° 0.1 mm 0 m/s 759 mmHg 94%
    22:00 +11°C° 0 mm 0 m/s 759 mmHg 95%
    23:00 +12°C° 0 mm 1 m/s 759 mmHg 96%

    Demain, 11 Avril, Samedi

    Heure Température Précipitation Vent Pression Humidité
    00:00 +12°C° 0 mm 1 m/s 759 mmHg 96%
    01:00 +12°C° 0 mm 1 m/s 759 mmHg 96%
    02:00 +11°C° 0 mm 1 m/s 759 mmHg 97%
    03:00 +11°C° 0 mm 1 m/s 759 mmHg 97%
    04:00 +11°C° 0 mm 1 m/s 759 mmHg 97%
    05:00 +11°C° 0 mm 1 m/s 760 mmHg 97%
    06:00 +10°C° 0 mm 2 m/s 760 mmHg 97%
    07:00 +10°C° 0 mm 2 m/s 760 mmHg 93%
    08:00 +12°C° 0 mm 2 m/s 760 mmHg 89%
    09:00 +11°C° 0 mm 3 m/s 761 mmHg 86%
    10:00 +13°C° 0 mm 2 m/s 761 mmHg 76%
    11:00 +14°C° 0 mm 2 m/s 761 mmHg 67%
    12:00 +15°C° 0 mm 2 m/s 761 mmHg 58%
    13:00 +16°C° 0 mm 2 m/s 761 mmHg 56%
    14:00 +16°C° 0 mm 2 m/s 761 mmHg 53%
    15:00 +17°C° 0 mm 2 m/s 760 mmHg 51%
    16:00 +15°C° 0 mm 2 m/s 760 mmHg 55%
    17:00 +14°C° 0 mm 2 m/s 760 mmHg 60%
    18:00 +13°C° 0 mm 2 m/s 760 mmHg 64%
    19:00 +12°C° 0 mm 2 m/s 759 mmHg 69%
    20:00 +10°C° 0 mm 1 m/s 759 mmHg 73%
    21:00 +9°C° 0 mm 1 m/s 759 mmHg 77%
    22:00 +9°C° 0 mm 1 m/s 759 mmHg 79%
    23:00 +9°C° 0 mm 1 m/s 758 mmHg 80%

    Après-demain, 12 Avril, Dimanche

    Heure Température Précipitation Vent Pression Humidité
    00:00 +9°C° 0 mm 1 m/s 758 mmHg 82%
    01:00 +9°C° 0 mm 1 m/s 757 mmHg 81%
    02:00 +10°C° 0 mm 1 m/s 756 mmHg 81%
    03:00 +10°C° 0 mm 1 m/s 755 mmHg 81%
    04:00 +8°C° 0.2 mm 2 m/s 754 mmHg 86%
    05:00 +8°C° 0.2 mm 2 m/s 754 mmHg 91%
    06:00 +8°C° 0.2 mm 2 m/s 753 mmHg 96%
    07:00 +8°C° 0.2 mm 2 m/s 752 mmHg 96%
    08:00 +8°C° 0.2 mm 2 m/s 752 mmHg 96%
    09:00 +8°C° 0.2 mm 2 m/s 751 mmHg 96%
    10:00 +8°C° 1 mm 2 m/s 751 mmHg 95%
    11:00 +8°C° 1 mm 2 m/s 751 mmHg 95%
    12:00 +8°C° 1 mm 3 m/s 751 mmHg 95%
    13:00 +7°C° 1.1 mm 3 m/s 751 mmHg 95%
    14:00 +7°C° 1.1 mm 3 m/s 750 mmHg 95%
    15:00 +5°C° 1.1 mm 4 m/s 750 mmHg 95%
    16:00 +5°C° 0.2 mm 4 m/s 750 mmHg 95%
    17:00 +6°C° 0.2 mm 4 m/s 750 mmHg 96%
    18:00 +6°C° 0.2 mm 4 m/s 750 mmHg 97%
    19:00 +7°C° 0.2 mm 4 m/s 750 mmHg 96%
    20:00 +7°C° 0.2 mm 5 m/s 751 mmHg 96%
    21:00 +8°C° 0.2 mm 6 m/s 752 mmHg 95%
    22:00 +7°C° 0 mm 6 m/s 753 mmHg 93%
    23:00 +5°C° 0 mm 6 m/s 753 mmHg 92%

    13 Avril, Lundi

    Heure Température Précipitation Vent Pression Humidité
    00:00 +5°C° 0 mm 6 m/s 754 mmHg 90%
    01:00 +5°C° 0 mm 5 m/s 755 mmHg 89%
    02:00 +5°C° 0 mm 5 m/s 756 mmHg 88%
    03:00 +3°C° 0 mm 5 m/s 756 mmHg 86%
    04:00 +3°C° 0 mm 5 m/s 757 mmHg 87%
    05:00 +3°C° 0 mm 5 m/s 758 mmHg 87%
    06:00 +3°C° 0 mm 5 m/s 759 mmHg 88%
    07:00 +5°C° 0 mm 5 m/s 759 mmHg 83%
    08:00 +5°C° 0 mm 6 m/s 760 mmHg 78%
    09:00 +7°C° 0 mm 6 m/s 761 mmHg 73%
    10:00 +7°C° 0 mm 6 m/s 762 mmHg 69%
    11:00 +8°C° 0 mm 6 m/s 762 mmHg 65%
    12:00 +8°C° 0 mm 6 m/s 762 mmHg 62%
    13:00 +9°C° 0 mm 5 m/s 762 mmHg 60%
    14:00 +9°C° 0 mm 5 m/s 762 mmHg 59%
    15:00 +9°C° 0 mm 5 m/s 762 mmHg 58%
    16:00 +10°C° 0 mm 4 m/s 762 mmHg 61%
    17:00 +8°C° 0 mm 4 m/s 762 mmHg 65%
    18:00 +8°C° 0 mm 3 m/s 762 mmHg 68%
    19:00 +7°C° 0 mm 3 m/s 763 mmHg 75%
    20:00 +4°C° 0 mm 3 m/s 763 mmHg 81%
    21:00 +3°C° 0 mm 2 m/s 763 mmHg 87%
    22:00 +3°C° 0 mm 2 m/s 763 mmHg 88%
    23:00 +2°C° 0 mm 2 m/s 763 mmHg 89%

    14 Avril, Mardi

    Heure Température Précipitation Vent Pression Humidité
    00:00 +2°C° 0 mm 2 m/s 763 mmHg 90%
    01:00 +1°C° 0 mm 2 m/s 763 mmHg 92%
    02:00 +1°C° 0 mm 2 m/s 762 mmHg 94%
    03:00 +1°C° 0 mm 1 m/s 762 mmHg 96%
    04:00 +1°C° 0 mm 1 m/s 762 mmHg 96%
    05:00 +1°C° 0 mm 1 m/s 762 mmHg 97%
    06:00 +1°C° 0 mm 1 m/s 762 mmHg 97%
    07:00 +2°C° 0 mm 2 m/s 761 mmHg 88%
    08:00 +4°C° 0 mm 2 m/s 761 mmHg 78%
    09:00 +5°C° 0 mm 3 m/s 761 mmHg 69%
    10:00 +8°C° 0 mm 3 m/s 761 mmHg 65%
    11:00 +9°C° 0 mm 3 m/s 760 mmHg 61%
    12:00 +11°C° 0 mm 3 m/s 760 mmHg 57%
    13:00 +11°C° 0 mm 3 m/s 760 mmHg 57%
    14:00 +11°C° 0 mm 4 m/s 759 mmHg 56%
    15:00 +12°C° 0 mm 4 m/s 759 mmHg 56%
    16:00 +11°C° 0 mm 3 m/s 758 mmHg 59%
    17:00 +10°C° 0 mm 3 m/s 758 mmHg 62%
    18:00 +9°C° 0 mm 3 m/s 757 mmHg 65%
    19:00 +7°C° 0 mm 2 m/s 757 mmHg 72%
    20:00 +4°C° 0 mm 2 m/s 758 mmHg 78%
    21:00 +3°C° 0 mm 1 m/s 758 mmHg 85%
    22:00 +3°C° 0 mm 1 m/s 758 mmHg 86%
    23:00 +3°C° 0 mm 1 m/s 757 mmHg 87%

    15 Avril, Mercredi

    Heure Température Précipitation Vent Pression Humidité
    00:00 +2°C° 0 mm 1 m/s 757 mmHg 88%
    01:00 +2°C° 0 mm 1 m/s 757 mmHg 90%
    02:00 +2°C° 0 mm 1 m/s 757 mmHg 92%
    03:00 +2°C° 0 mm 1 m/s 756 mmHg 94%
    04:00 +2°C° 0 mm 1 m/s 756 mmHg 94%
    05:00 +2°C° 0 mm 1 m/s 756 mmHg 95%
    06:00 +2°C° 0 mm 1 m/s 756 mmHg 96%
    07:00 +3°C° 0 mm 2 m/s 756 mmHg 86%
    08:00 +5°C° 0 mm 2 m/s 756 mmHg 76%
    09:00 +7°C° 0 mm 3 m/s 756 mmHg 66%
    10:00 +9°C° 0 mm 3 m/s 756 mmHg 62%
    11:00 +10°C° 0 mm 3 m/s 756 mmHg 58%
    12:00 +11°C° 0 mm 3 m/s 756 mmHg 55%
    13:00 +12°C° 0 mm 3 m/s 756 mmHg 55%
    14:00 +12°C° 0 mm 3 m/s 756 mmHg 55%
    15:00 +12°C° 0 mm 3 m/s 756 mmHg 55%
    16:00 +12°C° 0 mm 3 m/s 755 mmHg 60%
    17:00 +12°C° 0 mm 2 m/s 755 mmHg 65%
    18:00 +10°C° 0 mm 2 m/s 755 mmHg 69%
    19:00 +8°C° 0 mm 2 m/s 755 mmHg 74%
    20:00 +7°C° 0 mm 1 m/s 755 mmHg 79%
    21:00 +5°C° 0 mm 1 m/s 756 mmHg 84%
    22:00 +5°C° 0 mm 1 m/s 756 mmHg 82%
    23:00 +4°C° 0 mm 1 m/s 756 mmHg 81%
    Voir plus